Location: Palomar Mountain Lodge
(33.3110°N, 116.8495°W)
Time: 05:48:25
(UTC-07:00)

Tiangong - Pass Details

Date: 15 February 2026
Orbit: 381 x 391 km, 41.5° (Epoch: 8 March)

Event Time Altitude Azimuth Distance (km) Brightness Sun altitude
Rises 18:08:19 0° 288° (WNW) 2,248 3.0 -8.2°
Reaches altitude 10° 18:10:49 10° 308° (NW) 1,393 1.4 -8.7°
Maximum altitude 18:13:07 18° 355° (N) 999 -0.1 -9.2°
Drops below altitude 10° 18:15:25 10° 42° (NE) 1,390 0.2 -9.6°
Enters shadow 18:15:34 - 44° (NE) 1,438 0.3 -9.7°
